Tracking 30922 objects as of 2-Jul-2025
HD Live streaming from Space Station
objects crossing your sky now

YZ-2 R/B

Track YZ-2 R/B now!


NORAD ID: 41840
Int'l Code: 2016-065C
Perigee: 35,726.3 km
Apogee: 39,901.5 km
Inclination: 8.4 °
Period: 1,540.5 minutes
Semi major axis: 44184 km
RCS: Unknown
Launch date: November 3, 2016
Source: People's Republic of China (PRC)
Launch site: Wenchang Satellite Launch Center (WSC)

Note: This is a ROCKET BODY
Your satellite tracking list
Your tracking list is empty




NASA's NSSDC Master Catalog

Two Line Element Set (TLE):
1 41840U 16065C   25181.47928687 -.00000201  00000-0  00000-0 0  9997
2 41840   8.4296  70.3453 0472462 222.8828 133.2500  0.93474304 29567
Source of the keplerian elements: AFSPC